Location: Czekanka
(50.4925°N, 19.2643°E)
Time: 11:32:37
(UTC+00:00)

Cosmos 2123 Rocket - Pass Details

Date: 15 June 2024
Orbit: 961 x 991 km, 82.9° (Epoch: 15 July)

Event Time Altitude Azimuth Distance (km) Brightness Sun altitude
Rises 01:31:17 0° 349° (N) 3,658 7.7 -7.4°
Reaches altitude 10° 01:33:47 10° 349° (N) 2,708 7.0 -7.2°
Maximum altitude 01:40:00 86° 263° (W) 974 4.0 -6.5°
Drops below altitude 10° 01:46:11 10° 175° (S) 2,701 5.9 -5.9°
Sets 01:48:41 0° 175° (S) 3,648 6.6 -5.6°
